Temp
80 82 81 82 83 82 82 82 82 82 82 82 82 83 83 84 84 82 82 83 82 83 84 83 83 83 81 87 87 85 83 85 83 85 88 86 82 83 78 83 80 81 78
81 78 80 82 82 83 82 83 83 82 83 80 82 82 83 82 82 82 81 85 83 83 84 82 83 86 81 81 80 80 81 83 85 79 82 82 81 81 78 75 75 78 77
80 79 79 78 78 81 82 82 83 82 83 83 82 81 81 83 82 82 82 82 83 83 83 83 84 84 82 81 81 85 81 81 79 83 84 86 84 80 73 73 73 73 73
79 79 77 79 77 76 81 80 81 82 81 82 82 82 82 82 82 83 82 82 82 83 84 84 84 83 83 82 82 81 82 82 80 78 80 80 80 79 81 72 69 69 67
78 78 78 78 78 78 76 76 77 79 81 81 81 82 82 82 85 83 81 81 80 81 82 83 85 83 76 77 85 83 80 78 80 78 80 78 80 78 76 74 71 68 66
77 77 78 77 77 73 78 78 78 78 78 79 80 80 81 84 74 70 76 81 81 80 80 82 83 77 76 70 69 70 77 79 79 81 80 81 79 81 82 75 70 66 65
78 78 77 76 76 76 77 76 77 77 78 76 77 78 79 80 68 67 69 82 81 81 80 81 83 87 79 83 72 68 68 68 71 79 78 79 79 80 81 77 73 73 73
77 77 77 76 76 76 76 76 76 76 76 76 77 77 78 80 66 65 67 78 80 80 80 82 81 82 82 80 81 82 82 83 78 81 82 81 83 83 82 82 79 73 70
77 77 77 77 76 76 76 76 76 76 76 76 77 76 75 78 65 63 66 78 79 79 81 81 81 80 74 67 79 80 81 82 69 64 64 65 66 68 75 81 73 68 64
79 79 78 78 77 76 76 76 76 75 75 78 76 76 72 76 67 62 65 75 74 80 80 79 68 75 67 63 77 80 78 81 81 76 72 67 66 71 66 78 77 69 68
80 79 78 78 77 78 76 76 76 76 75 74 74 76 77 76 76 61 59 77 79 80 80 81 84 63 60 58 60 78 78 77 74 74 70 69 69 69 70 70 73 73 68
78 78 78 77 78 78 76 76 75 73 71 71 70 71 72 75 63 60 58 59 66 72 73 78 77 60 56 56 58 61 60 64 70 67 65 64 64 62 63 64 63 62 63
77 77 76 76 77 77 74 74 76 75 74 71 70 70 73 75 73 60 58 58 58 66 69 66 59 55 54 57 56 58 60 66 66 65 66 64 62 60 60 58 56 56 55
76 75 75 75 74 76 77 75 74 74 74 71 67 67 70 71 73 73 69 66 60 62 63 65 62 59 56 61 63 61 63 66 66 65 64 59 58 58 57 57 56 56 55
75 74 74 76 74 75 74 73 68 68 64 66 65 65 64 65 67 55 55 63 66 63 61 66 65 65 66 65 64 64 63 65 63 60 58 58 57 57 55 56 55 55 54
74 75 76 74 75 76 75 73 51 51 48 47 45 54 68 55 49 47 45 45 46 47 62 65 65 65 63 62 62 61 61 60 59 59 57 56 55 55 55 55 55 52 51
74 74 76 70 73 67 71 71 71 62 48 46 45 44 44 47 44 43 42 44 46 51 63 64 63 62 60 60 59 59 57 58 59 59 57 56 56 55 55 54 53 53 53
73 55 67 67 73 73 72 71 71 66 64 68 51 47 46 42 42 41 42 46 61 59 62 60 60 59 59 59 59 58 58 58 58 57 57 56 56 56 56 53 53 55 61
73 73 73 73 71 69 71 67 65 62 60 60 58 53 50 44 43 43 45 62 60 60 59 58 58 58 58 58 58 58 58 57 57 57 56 56 56 55 55 59 62 58 59
74 64 65 73 73 68 67 64 63 62 61 60 59 58 59 57 59 59 60 60 59 58 58 58 58 58 58 58 57 57 57 58 57 57 55 55 57 61 65 65 65 63 65
75 73 66 71 71 66 65 63 63 64 64 61 60 56 48 59 58 58 58 58 58 58 58 58 58 58 57 58 58 58 57 57 57 57 56 58 61 65 67 68 65 67 65
71 71 72 71 66 64 64 63 63 64 62 61 60 58 48 60 60 60 60 61 64 63 61 63 62 58 58 58 59 58 57 57 58 60 64 69 69 69 68 69 70 69 69
67 63 63 63 64 61 62 62 63 64 63 62 62 62 63 65 66 65 66 67 67 60 61 62 59 59 60 61 63 64 68 71 71 71 70 70 69 69 69 70 72 72 71
64 66 66 63 61 62 63 60 59 57 63 63 66 66 70 71 71 70 71 71 71 70 67 70 72 72 71 72 73 74 74 74 73 73 73 71 68 68 73 72 72 72 71
63 62 63 62 61 61 60 60 60 62 63 68 70 71 71 72 72 72 72 72 72 72 72 73 74 73 72 72 73 73 53 48 68 60 73 74 72 71 73 73 72 71 69
65 64 64 62 62 61 60 59 59 62 63 69 71 71 71 72 72 72 72 72 73 73 73 73 73 73 72 73 72 53 37 41 59 48 72 72 69 71 71 70 68 70 69
MSLP
1014.04 1014.35 1014.86 1015.15 1015.54 1015.94 1016.09 1016.13 1016.38 1016.49 1016.65 1016.66 1016.68 1016.73 1016.80 1016.88 1017.05 1017.38 1017.56 1017.64 1017.63 1017.58 1017.63 1017.65 1017.68 1017.81 1017.82 1017.70 1017.73 1017.63 1017.59 1017.54 1017.13 1017.01 1017.38 1017.78 1018.02 1018.16 1018.83 1018.75 1019.15 1019.15 1019.81
1013.55 1014.18 1014.44 1014.84 1015.16 1015.39 1015.62 1015.70 1015.95 1016.06 1016.21 1016.32 1016.45 1016.52 1016.47 1016.40 1016.59 1016.91 1017.04 1017.03 1017.20 1017.14 1017.14 1017.33 1017.29 1017.30 1017.46 1017.48 1017.55 1017.55 1017.47 1017.51 1017.27 1017.23 1017.33 1017.60 1017.85 1018.27 1018.65 1019.12 1019.27 1019.40 1019.58
1013.20 1013.69 1014.01 1014.45 1014.72 1014.75 1014.99 1015.26 1015.53 1015.72 1015.69 1015.90 1016.18 1016.16 1016.21 1016.30 1016.44 1016.54 1016.64 1016.72 1016.67 1016.65 1016.78 1016.94 1016.96 1016.99 1017.00 1017.05 1017.16 1016.89 1017.14 1017.29 1017.47 1017.18 1016.95 1017.34 1017.79 1018.40 1018.95 1019.16 1019.35 1019.55 1019.90
1012.78 1013.23 1013.55 1013.85 1014.32 1014.73 1014.84 1015.09 1015.26 1015.29 1015.44 1015.49 1015.62 1015.85 1015.86 1015.94 1016.04 1016.12 1016.22 1016.31 1016.36 1016.34 1016.35 1016.42 1016.52 1016.65 1016.65 1016.66 1016.77 1016.78 1016.88 1016.87 1017.06 1017.17 1017.07 1017.09 1017.29 1017.97 1018.14 1018.78 1019.35 1019.73 1020.16
1012.42 1012.83 1013.11 1013.55 1013.87 1014.26 1014.64 1014.81 1014.89 1014.89 1014.83 1015.04 1015.10 1015.23 1015.33 1015.36 1015.36 1015.61 1015.91 1015.97 1015.97 1015.90 1015.94 1015.93 1015.95 1015.99 1016.16 1016.26 1016.21 1016.25 1016.42 1016.58 1016.65 1016.68 1016.66 1016.85 1016.87 1017.40 1017.59 1018.13 1018.63 1019.35 1020.05
1012.14 1012.53 1012.90 1013.36 1013.57 1013.94 1013.99 1014.32 1014.45 1014.45 1014.57 1014.60 1014.60 1014.52 1014.67 1014.66 1014.66 1015.04 1015.29 1015.35 1015.45 1015.40 1015.29 1015.29 1015.35 1015.54 1015.66 1015.76 1015.82 1016.01 1016.17 1016.21 1016.23 1016.19 1016.12 1015.96 1016.04 1016.39 1016.60 1017.41 1018.13 1018.86 1019.51
1011.78 1012.12 1012.52 1012.87 1013.19 1013.51 1013.68 1013.92 1013.99 1014.18 1014.24 1014.25 1014.23 1014.14 1014.04 1014.11 1014.20 1014.42 1014.77 1014.77 1014.68 1014.70 1014.76 1014.79 1014.83 1014.73 1015.07 1015.19 1015.22 1015.41 1015.60 1015.71 1015.83 1015.64 1015.61 1015.53 1015.47 1015.62 1015.94 1016.56 1017.12 1017.66 1018.00
1011.42 1011.78 1012.21 1012.56 1012.80 1013.04 1013.33 1013.49 1013.64 1013.78 1013.75 1013.71 1013.63 1013.65 1013.72 1013.65 1013.91 1014.07 1014.19 1014.41 1014.18 1014.11 1014.17 1014.12 1014.19 1014.21 1014.44 1014.61 1014.65 1014.59 1014.60 1014.64 1014.93 1015.04 1015.00 1014.89 1015.00 1015.06 1015.29 1015.40 1015.94 1017.13 1017.91
1010.95 1011.28 1011.64 1011.98 1012.32 1012.63 1012.84 1013.03 1013.21 1013.28 1013.26 1013.18 1013.21 1013.27 1013.37 1013.25 1013.48 1013.67 1013.94 1013.86 1013.58 1013.39 1013.35 1013.52 1013.61 1013.69 1013.75 1013.95 1014.15 1013.93 1013.79 1013.75 1014.31 1014.72 1014.90 1015.04 1015.06 1015.03 1014.90 1015.26 1015.75 1016.68 1017.54
1010.62 1010.92 1011.21 1011.58 1011.80 1012.10 1012.36 1012.58 1012.76 1012.81 1012.66 1012.67 1012.74 1012.77 1012.73 1012.74 1012.82 1012.96 1013.35 1013.28 1013.04 1012.77 1012.70 1012.71 1012.86 1013.02 1013.06 1013.34 1013.55 1013.16 1013.04 1012.97 1013.39 1014.20 1014.77 1014.94 1014.92 1014.98 1015.29 1014.94 1015.11 1015.77 1016.48
1010.58 1010.86 1011.15 1011.45 1011.65 1011.88 1012.08 1012.27 1012.30 1012.33 1012.30 1012.29 1012.24 1012.11 1012.08 1012.12 1012.26 1012.48 1012.78 1012.62 1012.34 1012.10 1012.05 1011.92 1011.85 1012.27 1012.57 1012.82 1012.96 1012.76 1012.33 1012.24 1012.43 1013.31 1014.00 1014.41 1014.57 1014.66 1014.81 1015.28 1015.00 1015.14 1015.85
1010.64 1010.90 1011.14 1011.42 1011.58 1011.81 1011.91 1011.96 1012.00 1012.11 1012.10 1012.10 1012.11 1012.06 1011.90 1011.77 1012.03 1012.32 1012.44 1012.50 1012.36 1012.26 1012.04 1011.81 1011.74 1012.05 1012.27 1012.38 1012.75 1012.69 1012.77 1012.68 1012.86 1013.34 1013.68 1013.97 1014.43 1014.99 1015.23 1014.77 1015.12 1015.13 1015.80
1010.64 1010.82 1011.04 1011.33 1011.52 1011.67 1011.83 1011.84 1011.74 1011.90 1011.92 1011.81 1011.88 1011.84 1011.68 1011.65 1012.07 1012.24 1012.43 1012.54 1012.51 1012.47 1012.27 1012.14 1012.12 1012.13 1011.90 1012.09 1012.11 1012.23 1012.52 1012.36 1012.40 1012.85 1013.08 1013.61 1014.30 1015.20 1015.70 1016.34 1015.74 1016.05 1016.79
1010.62 1010.91 1011.16 1011.34 1011.49 1011.53 1011.61 1011.74 1011.92 1011.90 1011.83 1012.04 1012.17 1012.08 1011.92 1011.86 1011.75 1011.95 1012.37 1012.59 1012.52 1012.42 1012.26 1012.04 1011.79 1011.80 1011.58 1011.48 1011.61 1011.82 1011.94 1011.73 1011.76 1012.18 1013.04 1013.81 1014.43 1015.11 1015.52 1016.72 1016.00 1016.64 1017.06
1010.57 1010.87 1011.12 1011.26 1011.38 1011.41 1011.55 1011.73 1012.00 1012.27 1012.70 1012.80 1012.74 1012.59 1012.54 1012.40 1012.37 1012.65 1012.85 1012.60 1012.36 1012.09 1012.09 1011.76 1011.46 1011.26 1011.05 1011.19 1011.33 1011.31 1011.35 1011.47 1011.86 1012.74 1013.79 1014.72 1015.13 1015.38 1015.80 1016.24 1016.75 1017.35 1017.69
1010.46 1010.65 1010.78 1011.06 1011.16 1011.08 1011.20 1011.52 1012.30 1012.44 1012.62 1012.79 1012.95 1012.98 1012.45 1012.56 1012.52 1012.60 1012.60 1012.41 1012.22 1012.09 1011.81 1011.19 1010.86 1010.82 1010.94 1011.14 1011.04 1011.13 1011.33 1011.64 1012.21 1012.85 1013.55 1013.92 1015.18 1014.99 1016.13 1017.44 1017.66 1018.29 1018.92
1010.43 1010.65 1010.78 1011.01 1010.98 1011.22 1011.19 1011.33 1011.44 1012.08 1012.35 1012.59 1012.75 1012.80 1012.80 1012.40 1012.33 1012.31 1012.25 1012.10 1011.82 1011.52 1011.24 1010.97 1010.89 1011.01 1011.26 1011.34 1011.35 1011.52 1011.85 1012.15 1012.55 1013.10 1014.23 1015.03 1015.72 1016.54 1016.86 1017.96 1018.53 1018.60 1019.60
1010.53 1010.84 1011.05 1011.12 1010.87 1010.78 1010.80 1011.07 1011.32 1011.57 1011.70 1011.73 1012.06 1012.37 1012.40 1012.30 1012.00 1011.67 1011.65 1011.80 1011.49 1011.22 1011.16 1011.21 1011.29 1011.32 1011.43 1011.57 1011.80 1012.03 1012.37 1012.73 1013.21 1013.75 1014.29 1015.50 1016.16 1016.90 1017.38 1018.04 1018.28 1018.57 1019.21
1010.45 1010.62 1010.73 1010.69 1010.79 1010.67 1010.67 1011.08 1011.43 1011.71 1011.89 1011.94 1011.96 1011.98 1011.94 1011.78 1011.65 1011.56 1011.55 1011.44 1011.38 1011.44 1011.50 1011.52 1011.58 1011.72 1011.95 1012.13 1012.40 1012.62 1012.85 1013.34 1013.85 1014.48 1015.07 1015.93 1016.60 1017.23 1017.27 1017.93 1018.10 1018.31 1018.81
1010.25 1010.59 1010.74 1010.54 1010.41 1010.80 1010.92 1011.04 1011.31 1011.61 1011.78 1011.90 1011.92 1011.94 1011.76 1011.66 1011.64 1011.54 1011.41 1011.42 1011.52 1011.63 1011.78 1011.92 1012.05 1012.23 1012.46 1012.70 1013.03 1013.40 1013.64 1014.17 1014.62 1015.15 1015.71 1016.35 1016.89 1017.03 1017.00 1017.43 1017.90 1018.45 1018.84
1009.98 1010.19 1010.44 1010.46 1010.31 1010.65 1010.80 1010.94 1011.06 1011.17 1011.34 1011.54 1011.69 1011.86 1011.92 1011.68 1011.64 1011.62 1011.63 1011.68 1011.78 1011.98 1012.19 1012.32 1012.56 1012.82 1013.14 1013.37 1013.61 1014.01 1014.30 1014.70 1015.21 1015.66 1016.18 1016.47 1016.63 1016.61 1017.03 1017.47 1018.03 1018.29 1018.49
1009.93 1009.98 1009.97 1009.98 1010.24 1010.46 1010.68 1010.90 1011.04 1011.08 1011.26 1011.44 1011.60 1011.79 1011.78 1011.58 1011.60 1011.68 1011.84 1011.98 1012.07 1012.35 1012.55 1012.71 1013.00 1013.33 1013.64 1013.97 1014.27 1014.53 1014.80 1015.09 1015.44 1015.78 1015.95 1015.88 1016.13 1016.52 1016.90 1017.24 1017.37 1018.29 1018.79
1009.89 1010.14 1010.22 1010.26 1010.17 1010.16 1010.46 1010.70 1010.83 1010.97 1011.15 1011.37 1011.46 1011.40 1011.33 1011.17 1011.30 1011.54 1011.74 1012.07 1012.44 1012.88 1013.10 1013.34 1013.55 1013.89 1014.23 1014.44 1014.56 1014.66 1014.54 1014.61 1014.89 1015.18 1015.60 1015.84 1016.20 1016.43 1016.55 1017.25 1017.41 1017.78 1018.46
1009.91 1009.86 1009.80 1009.97 1010.13 1010.02 1010.08 1010.42 1010.69 1010.85 1010.97 1011.12 1011.06 1011.08 1010.84 1010.81 1011.06 1011.50 1011.78 1012.17 1012.51 1012.90 1013.30 1013.28 1013.44 1013.72 1014.13 1014.16 1014.26 1014.36 1014.49 1014.72 1015.10 1015.38 1015.44 1015.75 1016.44 1016.40 1016.70 1017.18 1017.56 1017.85 1018.29
1009.59 1009.61 1009.54 1009.53 1009.66 1009.74 1009.86 1010.17 1010.38 1010.76 1010.89 1010.75 1010.68 1010.81 1010.92 1011.05 1011.26 1011.57 1011.95 1012.23 1012.49 1012.66 1012.84 1013.00 1013.29 1013.64 1013.95 1014.22 1014.46 1014.59 1015.40 1015.59 1015.39 1015.65 1015.83 1015.92 1016.47 1016.86 1017.01 1017.27 1017.66 1018.02 1018.54
1009.17 1009.15 1009.12 1009.17 1009.18 1009.36 1009.50 1009.86 1010.12 1010.49 1010.71 1010.49 1010.51 1010.71 1010.98 1011.19 1011.50 1011.78 1011.97 1012.21 1012.45 1012.66 1012.86 1012.96 1013.28 1013.67 1014.08 1014.30 1014.68 1015.35 1015.82 1016.16 1016.12 1016.24 1016.18 1016.35 1016.72 1016.97 1017.36 1017.66 1018.09 1018.16 1018.49
Wind_Speed
12 12 13 12 12 10 9 9 9 8 7 7 7 8 9 8 8 8 8 7 8 7 5 5 6 5 4 5 5 5 5 4 5 1 2 3 4 5 4 4 7 5 6
10 10 12 11 11 11 11 11 9 9 7 9 7 7 7 7 8 9 10 9 9 8 8 6 6 5 8 6 5 7 5 4 4 4 0 4 4 4 5 5 4 4 5
10 11 11 11 11 12 12 11 10 10 9 8 8 8 8 7 7 8 9 10 10 9 9 9 9 8 8 6 7 6 5 4 4 5 3 2 2 5 3 3 5 5 5
10 10 9 10 8 6 7 9 10 9 9 10 10 10 10 9 8 8 9 9 9 9 9 10 9 9 9 7 7 8 7 6 5 5 4 4 4 3 4 5 4 3 5
9 10 10 7 7 7 5 5 7 8 9 9 10 11 11 9 8 9 8 9 10 11 11 11 11 11 8 8 6 7 7 6 6 6 7 4 5 5 7 5 5 4 3
10 10 8 8 8 5 6 6 5 6 7 8 10 11 12 10 9 11 10 9 10 11 11 10 10 9 10 11 12 11 9 8 9 7 7 9 9 6 5 6 5 4 3
10 8 8 8 8 8 7 6 7 7 6 8 9 10 12 12 10 12 12 11 10 11 11 10 10 10 10 11 11 12 11 13 14 10 11 10 8 7 7 8 9 9 6
8 8 8 8 7 6 7 9 8 8 9 9 9 9 10 9 8 11 12 12 12 13 13 13 13 13 11 11 10 11 11 11 11 10 13 11 9 7 9 9 9 6 5
6 5 5 5 5 6 7 7 7 8 8 9 9 10 11 11 10 12 9 10 12 14 13 13 13 13 13 14 12 13 13 12 4 2 5 8 8 5 7 6 7 8 3
6 5 5 5 4 4 4 5 5 6 6 6 8 9 11 13 11 11 10 8 10 10 10 12 13 16 11 12 13 13 13 14 11 9 7 5 7 6 7 11 8 9 5
4 5 5 4 3 2 3 3 4 5 5 6 7 8 10 10 10 9 10 9 8 8 8 8 8 11 14 11 14 13 14 11 10 10 7 5 4 4 5 4 5 5 6
4 5 5 4 3 2 4 4 4 5 4 4 4 4 4 6 3 3 5 10 4 6 8 7 6 5 8 9 7 14 13 6 5 6 6 6 6 4 2 6 5 8 7
5 5 4 3 2 2 3 4 5 4 5 3 3 3 3 2 3 6 6 7 7 4 5 7 8 9 8 8 11 12 11 8 7 8 9 7 5 5 7 5 9 13 12
6 5 3 3 2 3 3 3 4 5 5 3 2 3 4 4 4 2 2 3 6 5 6 6 4 6 6 5 3 6 7 8 8 6 5 7 7 7 7 1 9 6 8
5 5 4 3 4 4 4 3 3 2 2 3 2 3 4 6 4 0 3 4 5 4 5 4 3 2 2 2 3 3 4 3 4 6 6 6 6 7 9 8 9 7 9
5 4 2 2 3 4 5 3 5 4 4 6 5 6 4 9 9 8 8 8 8 8 4 3 3 2 1 1 2 3 4 8 8 10 11 13 11 12 9 7 7 8 6
3 3 3 3 2 3 4 5 5 5 8 8 7 7 9 14 11 11 9 8 7 4 2 3 1 2 2 3 4 5 6 7 10 9 10 9 11 9 11 9 6 7 4
3 1 2 2 4 5 4 5 5 4 5 5 5 7 6 9 10 9 7 4 1 0 1 0 1 2 3 4 4 6 7 7 9 10 12 10 10 8 8 7 6 8 8
4 4 4 4 4 4 4 2 2 2 3 4 4 2 3 5 2 3 5 1 2 2 3 3 4 4 4 5 6 6 8 8 9 9 9 8 7 5 6 8 8 8 9
4 5 6 5 4 3 4 3 3 3 3 2 1 0 1 2 1 1 2 3 4 4 5 5 5 5 6 7 7 8 10 10 9 7 6 5 4 5 7 9 9 9 6
3 4 4 5 5 3 4 3 2 3 2 1 1 1 4 1 1 2 3 4 4 5 5 5 6 6 6 6 8 7 7 6 6 6 5 5 6 7 7 9 7 6 9
4 5 6 6 6 5 5 4 4 3 2 2 1 2 2 3 4 4 5 5 6 7 5 8 7 5 4 5 6 5 5 5 4 5 6 7 8 8 9 10 10 8 9
4 4 5 7 6 4 5 5 4 5 4 3 3 3 4 5 6 6 7 7 7 5 4 6 5 5 4 4 4 5 7 7 6 6 7 8 8 7 8 8 9 9 9
5 7 7 6 5 6 6 6 4 5 6 5 5 5 5 6 8 9 8 8 8 8 7 6 7 8 7 5 4 4 4 5 6 7 8 8 6 8 9 9 7 8 7
5 6 6 6 5 6 5 6 6 7 7 7 6 6 6 7 7 8 8 7 7 7 7 7 6 8 7 7 6 6 8 7 6 7 6 9 10 9 8 7 7 7 7
5 6 6 4 5 6 6 7 7 8 7 7 7 7 7 7 6 6 6 5 5 5 6 6 8 8 9 8 7 8 7 6 7 4 6 6 6 6 5 6 8 7 9
Wind_Direction
204 207 215 216 216 222 227 221 225 227 230 236 233 225 218 216 221 223 237 247 239 239 240 238 234 226 228 215 217 217 222 220 257 161 243 158 190 203 148 160 161 150 137
204 205 215 220 222 218 226 226 221 220 221 240 221 240 245 232 215 227 242 238 240 244 245 240 249 231 240 225 217 232 236 217 257 267 210 190 216 175 153 168 154 150 135
197 197 202 209 215 223 222 225 223 225 227 230 232 232 241 244 236 229 232 239 245 247 243 238 242 237 249 246 239 249 225 214 215 252 265 211 171 172 154 149 141 135 124
202 205 209 213 209 219 234 233 230 223 234 237 235 238 235 239 239 236 234 237 240 246 245 241 240 238 243 239 239 247 242 237 220 237 250 233 211 171 197 172 158 140 137
196 199 205 200 197 189 208 223 237 236 243 239 236 240 241 237 238 235 245 246 246 246 239 242 242 243 238 246 250 237 235 237 234 234 243 246 235 197 216 187 179 145 130
199 206 199 186 181 184 192 221 235 247 246 246 242 233 238 239 225 214 223 236 245 249 248 240 245 239 241 227 226 244 259 247 249 242 243 250 248 225 214 195 148 160 176
208 203 195 203 205 194 189 202 219 226 232 235 243 244 238 239 217 217 218 241 243 245 247 248 252 253 232 252 227 229 234 236 245 256 250 244 251 234 223 198 197 200 204
190 191 189 190 198 201 210 221 234 234 238 240 241 238 243 249 225 224 222 243 246 241 244 245 244 248 244 237 244 246 246 243 232 231 240 250 238 233 218 220 202 170 86
175 174 175 181 185 188 205 215 223 228 240 240 248 250 246 246 225 236 230 247 247 243 239 243 245 245 237 213 237 250 254 250 167 273 298 314 299 229 236 198 177 167 154
169 163 158 166 177 194 210 226 231 236 249 246 249 247 251 254 240 236 222 235 239 242 238 240 230 245 240 207 229 243 245 246 227 214 202 200 207 216 210 216 192 209 168
157 156 165 177 190 235 251 238 262 257 251 252 269 273 261 248 251 224 213 224 234 235 239 248 251 217 239 235 224 252 243 250 217 206 200 188 181 183 178 244 270 242 179
189 196 187 173 197 238 270 286 276 252 256 267 273 287 285 277 216 160 194 215 241 248 250 263 274 310 276 245 227 247 276 224 184 198 186 185 185 166 176 138 108 89 62
204 211 188 183 227 267 298 296 279 257 257 251 269 294 302 224 198 183 207 228 237 246 253 259 277 279 269 263 238 240 237 219 196 198 205 187 152 108 114 100 85 92 75
204 195 183 219 248 257 268 288 281 290 284 290 281 281 298 299 285 198 219 231 239 238 251 258 259 274 268 275 268 219 216 216 205 207 166 125 121 131 117 275 109 105 89
176 171 189 227 254 264 260 274 247 224 256 280 259 291 292 283 289 130 286 296 284 274 284 249 235 258 287 268 238 225 206 216 121 102 106 92 86 102 107 97 83 62 92
178 188 202 240 273 272 275 248 208 262 210 217 229 245 271 254 278 282 277 275 267 264 232 262 289 294 233 202 137 91 98 116 122 125 130 139 132 126 120 88 98 105 103
227 248 260 250 262 277 269 267 283 200 212 220 232 236 242 269 289 279 274 299 281 180 248 299 281 154 154 144 122 119 121 124 127 127 121 116 115 119 119 133 139 114 133
221 114 250 261 281 295 273 258 265 275 287 291 220 235 252 264 270 267 252 246 203 258 321 290 118 124 129 119 116 117 117 116 116 119 118 122 125 134 131 135 146 151 153
217 245 254 263 264 292 291 264 244 261 277 290 301 279 323 1 352 183 188 260 143 118 94 87 92 96 95 95 97 100 105 107 111 113 117 126 125 133 119 157 170 151 136
224 244 266 253 263 262 248 219 215 234 243 240 242 288 322 290 7 38 71 99 101 98 100 96 90 97 100 104 105 108 109 110 111 112 106 105 123 158 165 162 155 151 142
254 260 255 263 258 236 235 224 227 235 228 209 112 34 326 334 79 89 95 95 99 105 102 100 101 97 97 107 113 114 118 119 117 119 132 152 153 170 152 153 134 142 133
272 279 273 254 233 212 214 201 204 198 190 178 133 73 105 94 96 102 103 111 114 111 107 121 113 99 94 106 104 101 101 102 112 138 161 154 149 141 136 141 146 144 151
272 277 282 266 248 213 192 190 190 178 172 148 141 119 134 132 121 117 113 117 112 84 85 101 91 85 96 98 110 136 156 153 150 150 147 142 129 138 136 153 156 156 163
296 286 268 268 249 213 197 177 170 175 155 165 148 143 131 124 122 122 124 126 129 132 134 145 144 143 138 147 140 140 134 136 151 156 144 120 123 151 148 155 165 160 163
267 264 262 255 225 213 171 172 169 168 166 176 153 147 143 139 134 136 136 138 144 152 152 152 157 151 149 137 125 131 97 133 163 128 156 146 149 156 153 158 155 159 163
282 280 272 256 223 192 174 169 168 167 172 182 159 154 151 151 147 150 150 152 163 161 161 160 153 154 150 147 146 119 133 157 151 168 139 135 139 148 157 174 177 183 179